Weather History for Weslaco, TX

Change the Weather History Date:

Thursday, April 10, 2014

  Actual Average (KMFE) Record (KMFE)
Temperature  
Mean Temperature 74 °F 76 °F  
Max Temperature 85 °F 87 °F 103 °F (2008)
Min Temperature 64 °F 65 °F 43 °F (1973)
Degree Days  
Heating Degree Days 0 0  
Month to date heating degree days 3  
Since 1 July heating degree days 574  
Cooling Degree Days 9 11  
Month to date cooling degree days 104  
Year to date cooling degree days 481  
Growing Degree Days 24 (Base 50)    
Moisture  
Dew Point 57 °F    
Average Humidity 61    
Maximum Humidity 88    
Minimum Humidity 30    
Precipitation  
Precipitation 0.00 in 0.04 in 0.41 in (1968)
Month to date precipitation 0.31  
Year to date precipitation 3.50  
Sea Level Pressure  
Sea Level Pressure 30.06 in    
Wind  
Wind Speed 13 mph (SSE)    
Max Wind Speed 24 mph    
Max Gust Speed 33 mph    
Visibility 10 miles    
Events      
T = Trace of Precipitation, MM = Missing Value Source: NWS Daily Summary

Daily Weather History Graph

Daily Weather History Graph

Search for Another Location

Airport:

Trip Planner

Search our weather history database for the weather conditions in past years. The results will help you decide how hot, cold, wet, or windy it might be!

Date:

Astronomy

Apr. 10, 2014 Rise Set
Actual Time 7:13 AM CDT 7:53 PM CDT
Civil Twilight 6:50 AM CDT 8:16 PM CDT
Nautical Twilight 6:22 AM CDT 8:44 PM CDT
Astronomical Twilight 5:54 AM CDT 9:12 PM CDT
Moon 4:01 PM CDT (4/10) 4:12 AM CDT (4/10)
Length of Visible Light 13h 26m
Length of Day
12h 39m
Waxing Gibbous, 80% of the Moon is Illuminated
Apr 10
Waxing Gibbous
Apr 15
Full
Apr 22
Last Quarter
Apr 29
New
May 6
First Quarter

Hourly Weather History & Observations

Time (CDT) Temp. Heat Index Dew Point Humidity Pressure Visibility Wind Dir Wind Speed Gust Speed Precip Events Conditions
12:15 AM 67.6 °F - 60.4 °F 78% 30.17 in 10.0 mi SSE 8.1 mph - N/A   Clear
12:35 AM 67.1 °F - 60.6 °F 80% 30.16 in 10.0 mi SSE 9.2 mph - N/A   Clear
12:55 AM 66.6 °F - 60.4 °F 81% 30.16 in 10.0 mi SSE 6.9 mph - N/A   Clear
1:15 AM 66.6 °F - 60.4 °F 81% 30.16 in 10.0 mi SSE 9.2 mph - N/A   Clear
1:35 AM 66.6 °F - 60.8 °F 82% 30.15 in 10.0 mi SSE 9.2 mph - N/A   Clear
1:55 AM 66.4 °F - 60.8 °F 82% 30.14 in 10.0 mi SSE 8.1 mph - N/A   Clear
2:15 AM 66.2 °F - 60.8 °F 83% 30.13 in 10.0 mi SSE 8.1 mph - N/A   Clear
2:35 AM 65.8 °F - 61.0 °F 84% 30.13 in 10.0 mi SSE 6.9 mph - N/A   Clear
2:55 AM 65.3 °F - 60.8 °F 85% 30.12 in 10.0 mi SSE 6.9 mph - N/A   Clear
3:15 AM 65.3 °F - 61.0 °F 86% 30.11 in 10.0 mi SSE 6.9 mph - N/A   Clear
3:35 AM 65.1 °F - 61.2 °F 87% 30.10 in 10.0 mi SSE 6.9 mph - N/A   Clear
3:55 AM 64.9 °F - 61.0 °F 87% 30.09 in 10.0 mi SSE 6.9 mph - N/A   Clear
4:15 AM 64.9 °F - 61.2 °F 88% 30.09 in 10.0 mi SSE 9.2 mph - N/A   Clear
4:35 AM 64.9 °F - 60.8 °F 86% 30.08 in 10.0 mi SSE 8.1 mph - N/A   Clear
4:55 AM 64.9 °F - 60.8 °F 86% 30.07 in 10.0 mi SSE 9.2 mph - N/A   Clear
5:15 AM 64.6 °F - 60.1 °F 85% 30.06 in 10.0 mi SSE 11.5 mph - N/A   Clear
5:35 AM 64.8 °F - 59.9 °F 84% 30.07 in 10.0 mi SSE 9.2 mph - N/A   Clear
5:55 AM 64.8 °F - 59.4 °F 83% 30.07 in 10.0 mi SSE 11.5 mph - N/A   Clear
6:15 AM 64.8 °F - 59.2 °F 82% 30.07 in 10.0 mi SSE 10.4 mph - N/A   Clear
6:35 AM 64.4 °F - 59.0 °F 83% 30.07 in 10.0 mi SSE 10.4 mph - N/A   Clear
6:55 AM 64.4 °F - 59.0 °F 83% 30.07 in 10.0 mi SSE 10.4 mph - N/A   Clear
7:15 AM 64.4 °F - 58.6 °F 82% 30.08 in 10.0 mi SSE 10.4 mph - N/A   Clear
7:35 AM 64.0 °F - 58.8 °F 83% 30.08 in 10.0 mi SSE 9.2 mph - N/A   Clear
7:55 AM 65.3 °F - 59.2 °F 81% 30.09 in 10.0 mi SSE 10.4 mph - N/A   Clear
8:15 AM 66.6 °F - 59.5 °F 78% 30.09 in 10.0 mi SSE 10.4 mph - N/A   Clear
8:35 AM 68.4 °F - 59.9 °F 74% 30.09 in 10.0 mi SSE 13.8 mph 18.4 mph N/A   Clear
8:55 AM 70.5 °F - 60.3 °F 70% 30.10 in 10.0 mi SSE 15.0 mph 18.4 mph N/A   Clear
9:15 AM 72.0 °F - 60.4 °F 67% 30.10 in 7.0 mi South 13.8 mph 20.7 mph N/A   Clear
9:35 AM 74.3 °F - 60.1 °F 61% 30.11 in 7.0 mi South 18.4 mph 25.3 mph N/A   Clear
9:55 AM 75.0 °F - 60.1 °F 60% 30.11 in 10.0 mi South 20.7 mph 26.5 mph N/A   Clear
10:15 AM 77.0 °F - 59.2 °F 54% 30.11 in 10.0 mi SSE 18.4 mph 26.5 mph N/A   Clear
10:35 AM 78.8 °F - 58.5 °F 50% 30.11 in 10.0 mi SSE 21.9 mph 29.9 mph N/A   Clear
10:55 AM 79.0 °F - 57.2 °F 47% 30.12 in 10.0 mi South 18.4 mph 26.5 mph N/A   Clear
11:15 AM 79.7 °F - 57.4 °F 46% 30.11 in 10.0 mi SSE 21.9 mph 31.1 mph N/A   Clear
11:35 AM 81.0 °F 81.0 °F 57.4 °F 44% 30.10 in 10.0 mi SSE 19.6 mph 28.8 mph N/A   Clear
11:55 AM 81.3 °F 81.2 °F 56.8 °F 43% 30.10 in 10.0 mi SSE 19.6 mph 33.4 mph N/A   Clear
12:15 PM 81.7 °F 81.4 °F 56.7 °F 42% 30.09 in 10.0 mi South 19.6 mph 32.2 mph N/A   Clear
12:35 PM 82.0 °F 81.5 °F 55.4 °F 40% 30.08 in 10.0 mi SSE 21.9 mph 31.1 mph N/A   Clear
1:15 PM 83.5 °F 82.4 °F 54.7 °F 37% 30.06 in 10.0 mi SSE 20.7 mph 31.1 mph N/A   Clear
1:35 PM 84.2 °F 82.9 °F 54.3 °F 36% 30.05 in 7.0 mi SSE 23.0 mph 29.9 mph N/A   Clear
1:55 PM 83.7 °F 82.3 °F 53.6 °F 35% 30.04 in 10.0 mi South 21.9 mph 31.1 mph N/A   Clear
2:15 PM 83.7 °F - 52.0 °F 33% 30.04 in 10.0 mi South 18.4 mph 32.2 mph N/A   Clear
2:35 PM 84.0 °F - 52.2 °F 33% 30.03 in 10.0 mi South 21.9 mph 27.6 mph N/A   Clear
2:55 PM 83.3 °F - 50.7 °F 32% 30.02 in 10.0 mi South 19.6 mph 28.8 mph N/A   Clear
3:15 PM 83.8 °F - 50.5 °F 31% 30.01 in 10.0 mi South 23.0 mph 31.1 mph N/A   Clear
3:35 PM 84.6 °F - 50.7 °F 31% 30.00 in 10.0 mi South 20.7 mph 29.9 mph N/A   Clear
3:55 PM 84.4 °F - 51.1 °F 32% 29.99 in 10.0 mi SSE 19.6 mph 29.9 mph N/A   Clear
4:15 PM 83.7 °F - 48.7 °F 30% 29.98 in 10.0 mi SSE 24.2 mph 32.2 mph N/A   Clear
4:35 PM 83.5 °F - 48.7 °F 30% 29.98 in 10.0 mi South 21.9 mph 31.1 mph N/A   Clear
4:55 PM 83.3 °F - 49.1 °F 30% 29.98 in 10.0 mi SSE 20.7 mph 29.9 mph N/A   Clear
5:15 PM 82.6 °F - 49.1 °F 31% 29.97 in 10.0 mi South 21.9 mph 28.8 mph N/A   Clear
5:35 PM 82.4 °F - 48.9 °F 31% 29.96 in 10.0 mi SSE 23.0 mph 31.1 mph N/A   Clear
5:55 PM 81.7 °F - 50.4 °F 34% 29.96 in 10.0 mi SSE 19.6 mph 31.1 mph N/A   Clear
6:15 PM 80.2 °F 80.0 °F 53.1 °F 39% 29.96 in 10.0 mi SSE 19.6 mph 28.8 mph N/A   Clear
6:35 PM 79.3 °F - 54.1 °F 42% 29.97 in 10.0 mi SSE 17.3 mph 24.2 mph N/A   Clear
6:55 PM 77.9 °F - 54.0 °F 43% 29.97 in 10.0 mi SSE 20.7 mph 26.5 mph N/A   Clear
7:15 PM 76.6 °F - 54.5 °F 46% 29.98 in 10.0 mi SSE 20.7 mph 27.6 mph N/A   Clear
7:35 PM 75.2 °F - 54.5 °F 48% 29.98 in 10.0 mi SSE 18.4 mph 25.3 mph N/A   Clear
7:55 PM 73.9 °F - 55.6 °F 53% 29.98 in 10.0 mi SSE 16.1 mph 23.0 mph N/A   Clear
8:15 PM 73.0 °F - 56.5 °F 56% 29.98 in 10.0 mi SSE 17.3 mph 23.0 mph N/A   Clear
8:35 PM 72.3 °F - 57.4 °F 59% 29.99 in 10.0 mi SSE 17.3 mph 21.9 mph N/A   Clear
8:55 PM 71.8 °F - 57.7 °F 61% 30.00 in 10.0 mi SSE 17.3 mph 25.3 mph N/A   Clear
9:15 PM 71.2 °F - 57.7 °F 62% 30.01 in 10.0 mi SSE 15.0 mph 21.9 mph N/A   Clear
9:35 PM 70.7 °F - 58.1 °F 64% 30.01 in 10.0 mi SSE 15.0 mph 24.2 mph N/A   Clear
9:55 PM 70.2 °F - 58.3 °F 66% 30.02 in 10.0 mi SSE 12.7 mph 20.7 mph N/A   Clear
10:15 PM 69.4 °F - 58.5 °F 68% 30.03 in 10.0 mi SSE 12.7 mph 16.1 mph N/A   Clear
10:35 PM 69.1 °F - 58.6 °F 69% 30.02 in 10.0 mi SSE 12.7 mph 19.6 mph N/A   Clear
10:55 PM 68.9 °F - 58.6 °F 70% 30.02 in 10.0 mi SSE 11.5 mph 17.3 mph N/A   Clear
11:15 PM 68.4 °F - 58.6 °F 71% 30.03 in 10.0 mi SSE 10.4 mph - N/A   Clear
11:35 PM 68.2 °F - 58.8 °F 72% 30.02 in 10.0 mi SSE 9.2 mph - N/A   Clear
11:55 PM 67.8 °F - 58.8 °F 73% 30.02 in 10.0 mi SSE 9.2 mph - N/A   Clear